Richmond International Airport Richmond US
ICAO: KRIC
IATA: RIC
Category: Large
Scheduled Services: Yes

Elevation: 167 ft
TransAlt. 18000 ft.

Airport Communications:
POTOMAC APP/DEP:118.2
ATIS:119.15
CLNC DEL:127.55
GND:121.9
ARNG OPS:40.2
ANG OPS:142.175
LEESBURG RDO:122.2
TWR:121.1
UNICOM:122.95

KRIC Zoom In..

Runways:

(A) RW 02 length 6607 ft width 150 ft
ILS 110.90 / hdg 22

(B) RW 07 length 5326 ft width 100 ft
---- / hdg 66

(C) RW 16 length 9003 ft width 150 ft
ILS 110.70 / hdg 156

(D) RW 20 length 6607 ft width 150 ft
---- / hdg 202

(E) RW 25 length 5326 ft width 100 ft
---- / hdg 246

(F) RW 34 length 9003 ft width 150 ft
ILS 110.70 / hdg 336

Location; KRIC
Day. 11 / Time. 08.54 Zulu
* Altimeter: 29.97
* Temperature: 22° c. 71.6°f.
* Wind from: 160° Speed 03 kn.
Dewpoint: 21° c.
Visibility: 10 Statute Miles.
Clouds: Clear (automated report).

KRIC 110854Z 16003KT 10SM CLR 22/21 A2997 RMK AO2 SLP150 T02220211 56010

Going to: --> -->


Wind From 160°
Speed 03 kn.

 
 
jpsmedia worldairports.se 2020   terms of use